Overview Statistics Trail Chart Weather Telemetry Raw packets
 

This is the latest recevied weather packets stored in our database for station/object KW4UJ. If no packets are shown the sender has not sent any weather packets the latest 10 day(s).

<< 102 103 104 105 106 107 108 >>
Time Temp. Humidity Pressure Rain* Wind** Luminosity Snow
1787862153 30° C 66% 1013.1 hPa 0 mm - 325 W/m² -
1787861848 30° C 67% 1013.1 hPa 0 mm - 309 W/m² -
1787861546 30° C 68% 1013.4 hPa 0 mm - 287 W/m² -
1787861241 30° C 68% 1013.3 hPa 0 mm - 335 W/m² -
1787860941 30° C 67% 1013.3 hPa 0 mm - 365 W/m² -
1787860635 30° C 68% 1013.4 hPa 0 mm - 296 W/m² -
1787860330 30° C 68% 1013.2 hPa 0 mm - 220 W/m² -
1787860025 30° C 68% 1013.6 hPa 0 mm - 331 W/m² -
1787859721 30° C 69% 1013.7 hPa 0 mm - 338 W/m² -
1787859421 30° C 69% 1013.6 hPa 0 mm - 272 W/m² -
1787859115 30° C 70% 1013.5 hPa 0 mm - 320 W/m² -
1787858812 30° C 71% 1013.6 hPa 0 mm - 315 W/m² -
1787858508 30° C 71% 1013.5 hPa 0 mm - 452 W/m² -
1787858207 30° C 70% 1013.8 hPa 0 mm - 324 W/m² -
1787857903 30° C 70% 1013.6 hPa 0 mm - 394 W/m² -
1787857599 30° C 70% 1013.7 hPa 0 mm - 433 W/m² -
1787857293 30° C 71% 1013.8 hPa 0 mm - 394 W/m² -
1787856992 29.44° C 71% 1014.2 hPa 0 mm - 426 W/m² -
1787856691 29.44° C 72% 1013.7 hPa 0 mm - 152 W/m² -
1787856391 29.44° C 72% 1014.1 hPa 0 mm - 422 W/m² -
1787856087 29.44° C 71% 1014 hPa 0 mm - 129 W/m² -
1787855782 30° C 69% 1014.1 hPa 0 mm - 434 W/m² -
1787855477 30° C 71% 1014.1 hPa 0 mm - 367 W/m² -
1787855172 30.56° C 69% 1014.2 hPa 0 mm - 191 W/m² -
1787854867 30.56° C 68% 1014.2 hPa 0 mm - 183 W/m² -

* Rain latest hour (hover to see other rain measurements)
** Current wind speed in m/s (hover to see current wind gust speed)